カタログに戻る

CZ-6A DEB

運用中PO
NORAD 60876·DEBRIS·🇨🇳 China

打ち上げ Aug 6, 2024 から Taiyuan Satellite Launch Center

Loading…

次のパス (今後24時間)

TLE

最新Source: Space-Track

元期: Sep 13, 2026, 13:37 UTC

1 60876U 24140KF  26256.56746860  .00000969  00000-0  44529-3 0  9992
2 60876  89.0260 267.6497 0054710 256.3485 103.1609 14.19727592107471

AllMySatでCZ-6A DEBをリアルタイム追跡

Download on the App Store